FIN1EH EFHK-EDDM

Flight info

Callsign FIN1EH
Flight time 2h 20m
Altitude 36000
Route VALOX DCT DANKA DCT ROSAX DCT LEMSI DCT PIMEX DCT ANFEV DCT PENOR DCT GOVEN DCT KOBUS DCT MAREM DCT BALTU DCT VESUB T106 TUSTO T108 LANDU LANDU2B
Aircraft A321/M-SDE3FGHIRWY/LB1

Departure

Time 2026-05-07 20:10
Airport Helsinki Vantaa Airport (EFHK)

Arrival

Time 2026-05-07 22:31
Airport Munich Airport (EDDM)
Time Latitude Longitude Altitude Speed Heading
2026-05-07 19:20 60.31804 24.96386 167 ft 0 kts 137°
2026-05-07 19:58 60.31810 24.96376 167 ft 4 kts 137°
2026-05-07 19:59 60.31828 24.96342 167 ft 3 kts 137°
2026-05-07 19:59 60.31842 24.96319 167 ft 4 kts 175°
2026-05-07 19:59 60.31859 24.96333 167 ft 3 kts 227°
2026-05-07 19:59 60.31876 24.96370 167 ft 4 kts 227°
2026-05-07 20:00 60.31886 24.96391 167 ft 0 kts 227°
2026-05-07 20:03 60.31885 24.96391 167 ft 0 kts 227°
2026-05-07 20:04 60.31883 24.96386 167 ft 3 kts 227°
2026-05-07 20:04 60.31854 24.96265 167 ft 13 kts 263°
2026-05-07 20:04 60.31885 24.96108 167 ft 12 kts 315°
2026-05-07 20:05 60.31941 24.96005 169 ft 9 kts 317°
2026-05-07 20:05 60.31954 24.95981 171 ft 0 kts 317°
2026-05-07 20:05 60.31957 24.95975 171 ft 4 kts 317°
2026-05-07 20:06 60.32009 24.95879 173 ft 17 kts 317°
2026-05-07 20:06 60.32124 24.95668 172 ft 25 kts 317°
2026-05-07 20:06 60.32248 24.95437 175 ft 23 kts 316°
2026-05-07 20:06 60.32370 24.95254 177 ft 21 kts 339°
2026-05-07 20:07 60.32487 24.95178 179 ft 15 kts 342°
2026-05-07 20:07 60.32583 24.95116 180 ft 14 kts 342°
2026-05-07 20:07 60.32690 24.95046 179 ft 17 kts 342°
2026-05-07 20:07 60.32804 24.94972 176 ft 18 kts 342°
2026-05-07 20:08 60.32916 24.94870 176 ft 16 kts 320°
2026-05-07 20:08 60.32993 24.94730 179 ft 13 kts 317°
2026-05-07 20:08 60.33050 24.94625 183 ft 10 kts 317°
2026-05-07 20:08 60.33118 24.94477 193 ft 17 kts 290°
2026-05-07 20:09 60.33087 24.94335 188 ft 0 kts 226°
2026-05-07 20:09 60.33087 24.94334 188 ft 0 kts 226°
2026-05-07 20:09 60.33069 24.94295 187 ft 17 kts 227°
2026-05-07 20:10 60.32227 24.92433 166 ft 151 kts 227°
2026-05-07 20:10 60.31475 24.90799 681 ft 155 kts 227°
2026-05-07 20:10 60.30749 24.89229 1412 ft 152 kts 232°
2026-05-07 20:10 60.30125 24.87398 1766 ft 167 kts 246°
2026-05-07 20:11 60.29485 24.85271 2034 ft 188 kts 243°
2026-05-07 20:11 60.28728 24.82925 2218 ft 211 kts 241°
2026-05-07 20:11 60.27875 24.80333 2399 ft 234 kts 240°
2026-05-07 20:11 60.26937 24.77456 2646 ft 256 kts 244°
2026-05-07 20:12 60.26180 24.74194 3298 ft 263 kts 250°
2026-05-07 20:12 60.25485 24.70772 4138 ft 265 kts 251°
2026-05-07 20:12 60.24815 24.67312 5019 ft 266 kts 251°
2026-05-07 20:12 60.24060 24.63907 5856 ft 269 kts 238°
2026-05-07 20:13 60.22743 24.61237 6674 ft 274 kts 213°
2026-05-07 20:13 60.21038 24.59477 7458 ft 276 kts 207°
2026-05-07 20:13 60.19300 24.57805 8238 ft 278 kts 207°
2026-05-07 20:13 60.17539 24.56125 9005 ft 281 kts 208°
2026-05-07 20:14 60.15761 24.54425 9771 ft 284 kts 208°
2026-05-07 20:14 60.13969 24.52705 10397 ft 291 kts 209°
2026-05-07 20:14 60.12072 24.50868 10558 ft 314 kts 209°
2026-05-07 20:14 60.10046 24.48900 10784 ft 331 kts 209°
2026-05-07 20:15 60.07950 24.46880 11346 ft 337 kts 210°
2026-05-07 20:15 60.05826 24.44847 12012 ft 339 kts 210°
2026-05-07 20:15 60.03688 24.42811 12697 ft 342 kts 210°
2026-05-07 20:15 60.01528 24.40757 13380 ft 344 kts 211°
2026-05-07 20:16 59.99362 24.38693 14040 ft 346 kts 211°
2026-05-07 20:16 59.97181 24.36614 14641 ft 348 kts 212°
2026-05-07 20:16 59.94991 24.34523 15180 ft 351 kts 211°
2026-05-07 20:16 59.92781 24.32416 15742 ft 353 kts 211°
2026-05-07 20:17 59.90583 24.30327 16306 ft 355 kts 211°
2026-05-07 20:17 59.88344 24.28207 16881 ft 357 kts 211°
2026-05-07 20:17 59.86091 24.26077 17449 ft 359 kts 211°
2026-05-07 20:17 59.83828 24.23939 18012 ft 361 kts 212°
2026-05-07 20:18 59.81547 24.21781 18539 ft 363 kts 212°
2026-05-07 20:18 59.79263 24.19625 19000 ft 365 kts 212°
2026-05-07 20:18 59.76966 24.17465 19469 ft 366 kts 212°
2026-05-07 20:18 59.74654 24.15296 19920 ft 368 kts 212°
2026-05-07 20:19 59.72431 24.12864 20329 ft 363 kts 221°
2026-05-07 20:19 59.70379 24.09949 20742 ft 363 kts 222°
2026-05-07 20:19 59.68351 24.07059 21084 ft 365 kts 221°
2026-05-07 20:19 59.66280 24.04122 21465 ft 368 kts 221°
2026-05-07 20:20 59.64193 24.01176 21859 ft 369 kts 221°
2026-05-07 20:20 59.62091 23.98218 22248 ft 371 kts 221°
2026-05-07 20:20 59.59980 23.95252 22643 ft 373 kts 221°
2026-05-07 20:20 59.57861 23.92276 23044 ft 375 kts 221°
2026-05-07 20:21 59.55732 23.89287 23454 ft 376 kts 221°
2026-05-07 20:21 59.53590 23.86287 23808 ft 378 kts 221°
2026-05-07 20:21 59.51440 23.83280 24136 ft 380 kts 221°
2026-05-07 20:21 59.49281 23.80260 24486 ft 381 kts 221°
2026-05-07 20:22 59.47224 23.77001 24801 ft 377 kts 230°
2026-05-07 20:22 59.45439 23.73244 25129 ft 376 kts 232°
2026-05-07 20:22 59.43684 23.69467 25465 ft 378 kts 232°
2026-05-07 20:22 59.41908 23.65660 25796 ft 380 kts 232°
2026-05-07 20:23 59.40119 23.61835 26127 ft 381 kts 232°
2026-05-07 20:23 59.38320 23.57990 26438 ft 383 kts 232°
2026-05-07 20:23 59.36514 23.54131 26745 ft 385 kts 232°
2026-05-07 20:23 59.34699 23.50270 27058 ft 386 kts 232°
2026-05-07 20:24 59.32870 23.46393 27367 ft 388 kts 232°
2026-05-07 20:24 59.31030 23.42507 27666 ft 390 kts 231°
2026-05-07 20:24 59.29178 23.38599 27966 ft 391 kts 231°
2026-05-07 20:24 59.27321 23.34683 28262 ft 393 kts 231°
2026-05-07 20:25 59.25459 23.30763 28554 ft 395 kts 231°
2026-05-07 20:25 59.23582 23.26822 28789 ft 396 kts 231°
2026-05-07 20:25 59.21691 23.22857 28996 ft 400 kts 231°
2026-05-07 20:25 59.19788 23.18874 29241 ft 402 kts 231°
2026-05-07 20:26 59.17877 23.14879 29505 ft 404 kts 231°
2026-05-07 20:26 59.15955 23.10864 29775 ft 406 kts 231°
2026-05-07 20:26 59.14024 23.06840 29999 ft 407 kts 231°
2026-05-07 20:26 59.12085 23.02809 30225 ft 408 kts 231°
2026-05-07 20:27 59.10137 22.98770 30412 ft 410 kts 231°
2026-05-07 20:27 59.08183 22.94721 30579 ft 411 kts 231°
2026-05-07 20:27 59.06225 22.90668 30820 ft 411 kts 231°
2026-05-07 20:27 59.04288 22.86672 31042 ft 412 kts 231°
2026-05-07 20:28 59.02326 22.82627 31268 ft 412 kts 231°
2026-05-07 20:28 59.00362 22.78568 31417 ft 413 kts 231°
2026-05-07 20:28 58.98388 22.74491 31600 ft 414 kts 231°
2026-05-07 20:28 58.96411 22.70421 31821 ft 415 kts 231°
2026-05-07 20:29 58.94428 22.66356 32051 ft 415 kts 230°
2026-05-07 20:29 58.92443 22.62301 32298 ft 415 kts 230°
2026-05-07 20:29 58.90458 22.58255 32527 ft 415 kts 230°
2026-05-07 20:29 58.88471 22.54221 32764 ft 414 kts 230°
2026-05-07 20:30 58.87150 22.51540 32920 ft 414 kts 230°
2026-05-07 20:30 58.85161 22.47508 33161 ft 414 kts 230°
2026-05-07 20:30 58.83168 22.43472 33394 ft 414 kts 230°
2026-05-07 20:30 58.81182 22.39453 33630 ft 414 kts 230°
2026-05-07 20:31 58.79197 22.35434 33809 ft 414 kts 230°
2026-05-07 20:31 58.77203 22.31401 33965 ft 416 kts 230°
2026-05-07 20:31 58.75204 22.27370 34152 ft 416 kts 230°
2026-05-07 20:31 58.73201 22.23344 34332 ft 417 kts 230°
2026-05-07 20:32 58.71193 22.19318 34517 ft 416 kts 230°
2026-05-07 20:32 58.69182 22.15294 34701 ft 416 kts 230°
2026-05-07 20:32 58.67202 22.11344 34881 ft 416 kts 230°
2026-05-07 20:32 58.65192 22.07338 35062 ft 416 kts 230°
2026-05-07 20:33 58.63187 22.03341 35225 ft 415 kts 230°
2026-05-07 20:33 58.61183 21.99348 35419 ft 415 kts 229°
2026-05-07 20:33 58.59181 21.95368 35576 ft 415 kts 229°
2026-05-07 20:33 58.57170 21.91383 35705 ft 415 kts 229°
2026-05-07 20:34 58.55161 21.87410 35831 ft 416 kts 229°
2026-05-07 20:34 58.53145 21.83433 35944 ft 417 kts 229°
2026-05-07 20:34 58.51126 21.79457 36118 ft 416 kts 229°
2026-05-07 20:35 58.47089 21.71541 36174 ft 414 kts 229°
2026-05-07 20:35 58.43064 21.63666 36185 ft 413 kts 229°
2026-05-07 20:36 58.39049 21.55816 36178 ft 413 kts 229°
2026-05-07 20:36 58.35025 21.47985 36159 ft 414 kts 229°
2026-05-07 20:37 58.30974 21.40127 36184 ft 417 kts 228°
2026-05-07 20:37 58.26928 21.32313 36183 ft 417 kts 228°
2026-05-07 20:38 58.22851 21.24477 36184 ft 417 kts 228°
2026-05-07 20:38 58.18725 21.16729 36189 ft 418 kts 226°
2026-05-07 20:39 58.14490 21.09191 36185 ft 418 kts 226°
2026-05-07 20:39 58.10231 21.01680 36161 ft 418 kts 225°
2026-05-07 20:40 58.05964 20.94172 36164 ft 419 kts 225°
2026-05-07 20:40 58.01735 20.86693 36169 ft 419 kts 225°
2026-05-07 20:41 57.97474 20.79159 36183 ft 420 kts 225°
2026-05-07 20:41 57.93200 20.71666 36188 ft 420 kts 225°
2026-05-07 20:42 57.88915 20.64184 36161 ft 420 kts 225°
2026-05-07 20:42 57.84629 20.56699 36175 ft 420 kts 225°
2026-05-07 20:43 57.80341 20.49227 36177 ft 421 kts 225°
2026-05-07 20:43 57.76060 20.41833 36195 ft 421 kts 225°
2026-05-07 20:44 57.71757 20.34382 36187 ft 422 kts 225°
2026-05-07 20:44 57.67430 20.26943 36168 ft 422 kts 224°
2026-05-07 20:45 57.63089 20.19513 36165 ft 423 kts 224°
2026-05-07 20:45 57.58741 20.12085 36174 ft 424 kts 224°
2026-05-07 20:46 57.54386 20.04637 36189 ft 425 kts 224°
2026-05-07 20:46 57.50047 19.97272 36191 ft 425 kts 224°
2026-05-07 20:47 57.45661 19.89893 36194 ft 425 kts 224°
2026-05-07 20:47 57.41284 19.82508 36177 ft 426 kts 224°
2026-05-07 20:48 57.36890 19.75110 36179 ft 426 kts 223°
2026-05-07 20:48 57.32489 19.67741 36187 ft 427 kts 223°
2026-05-07 20:49 57.28076 19.60377 36192 ft 427 kts 223°
2026-05-07 20:49 57.23660 19.53031 36196 ft 427 kts 223°
2026-05-07 20:50 57.19235 19.45705 36195 ft 427 kts 223°
2026-05-07 20:50 57.14832 19.38435 36194 ft 427 kts 223°
2026-05-07 20:51 57.10400 19.31132 36197 ft 427 kts 223°
2026-05-07 20:51 57.05956 19.23841 36195 ft 427 kts 223°
2026-05-07 20:52 57.01512 19.16568 36216 ft 428 kts 223°
2026-05-07 20:52 56.97086 19.09345 36190 ft 429 kts 223°
2026-05-07 20:53 56.92616 19.02085 36187 ft 430 kts 223°
2026-05-07 20:53 56.88130 18.94826 36183 ft 431 kts 223°
2026-05-07 20:54 56.83631 18.87577 36189 ft 431 kts 223°
2026-05-07 20:54 56.79132 18.80340 36188 ft 431 kts 223°
2026-05-07 20:55 56.74622 18.73099 36184 ft 431 kts 222°
2026-05-07 20:55 56.70112 18.65880 36188 ft 432 kts 222°
2026-05-07 20:56 56.65589 18.58677 36193 ft 432 kts 222°
2026-05-07 20:56 56.61056 18.51494 36193 ft 432 kts 222°
2026-05-07 20:57 56.56523 18.44340 36195 ft 432 kts 221°
2026-05-07 20:57 56.51986 18.37200 36195 ft 432 kts 221°
2026-05-07 20:58 56.47488 18.30111 36199 ft 432 kts 221°
2026-05-07 20:58 56.42954 18.22995 36199 ft 431 kts 221°
2026-05-07 20:59 56.38409 18.15905 36199 ft 431 kts 221°
2026-05-07 20:59 56.33857 18.08832 36191 ft 431 kts 221°
2026-05-07 21:00 56.29310 18.01781 36186 ft 432 kts 221°
2026-05-07 21:00 56.24743 17.94703 36177 ft 433 kts 221°
2026-05-07 21:01 56.20192 17.87691 36179 ft 434 kts 221°
2026-05-07 21:01 56.15573 17.80602 36184 ft 434 kts 221°
2026-05-07 21:02 56.11002 17.73608 36186 ft 434 kts 221°
2026-05-07 21:02 56.06396 17.66583 36188 ft 434 kts 220°
2026-05-07 21:03 56.01797 17.59574 36186 ft 434 kts 221°
2026-05-07 21:03 55.97191 17.52589 36191 ft 434 kts 220°
2026-05-07 21:04 55.92606 17.45671 36190 ft 434 kts 220°
2026-05-07 21:04 55.87987 17.38721 36201 ft 434 kts 220°
2026-05-07 21:05 55.83371 17.31788 36203 ft 434 kts 220°
2026-05-07 21:05 55.78609 17.25235 36198 ft 434 kts 210°
2026-05-07 21:06 55.73024 17.21209 36196 ft 434 kts 198°
2026-05-07 21:06 55.67246 17.18023 36194 ft 434 kts 198°
2026-05-07 21:07 55.61559 17.14464 36182 ft 433 kts 203°
2026-05-07 21:07 55.56025 17.10369 36190 ft 433 kts 203°
2026-05-07 21:08 55.50464 17.06281 36191 ft 433 kts 203°
2026-05-07 21:08 55.44890 17.02209 36191 ft 433 kts 203°
2026-05-07 21:09 55.39319 16.98161 36190 ft 433 kts 203°
2026-05-07 21:09 55.33749 16.94125 36190 ft 433 kts 202°
2026-05-07 21:10 55.28177 16.90092 36191 ft 433 kts 202°
2026-05-07 21:10 55.22605 16.86069 36191 ft 433 kts 202°
2026-05-07 21:11 55.17078 16.82086 36189 ft 432 kts 202°
2026-05-07 21:11 55.08736 16.76090 36186 ft 433 kts 202°
2026-05-07 21:12 55.03166 16.72108 36187 ft 433 kts 202°
2026-05-07 21:12 54.97587 16.68130 36187 ft 433 kts 202°
2026-05-07 21:13 54.92011 16.64168 36183 ft 433 kts 202°
2026-05-07 21:13 54.86428 16.60224 36177 ft 433 kts 202°
2026-05-07 21:14 54.80846 16.56294 36184 ft 433 kts 202°
2026-05-07 21:14 54.75261 16.52362 36184 ft 433 kts 202°
2026-05-07 21:15 54.69670 16.48431 36183 ft 433 kts 202°
2026-05-07 21:15 54.64118 16.44533 36184 ft 433 kts 202°
2026-05-07 21:16 54.58523 16.40634 36185 ft 433 kts 202°
2026-05-07 21:16 54.53833 16.37383 36182 ft 433 kts 202°
2026-05-07 21:17 54.48266 16.33532 36182 ft 433 kts 202°
2026-05-07 21:17 54.42633 16.29631 36176 ft 433 kts 202°
2026-05-07 21:18 54.37079 16.25790 36178 ft 433 kts 202°
2026-05-07 21:18 54.31485 16.21937 36178 ft 433 kts 202°
2026-05-07 21:19 54.25885 16.18097 36172 ft 433 kts 202°
2026-05-07 21:19 54.20295 16.14278 36165 ft 433 kts 202°
2026-05-07 21:20 54.14699 16.10469 36174 ft 433 kts 202°
2026-05-07 21:20 54.09132 16.06691 36172 ft 433 kts 202°
2026-05-07 21:21 54.03533 16.02900 36167 ft 433 kts 202°
2026-05-07 21:21 53.97932 15.99105 36163 ft 433 kts 202°
2026-05-07 21:22 53.92330 15.95325 36163 ft 433 kts 202°
2026-05-07 21:22 53.86726 15.91565 36159 ft 433 kts 202°
2026-05-07 21:23 53.81152 15.87828 36163 ft 433 kts 202°
2026-05-07 21:23 53.75550 15.84081 36164 ft 433 kts 202°
2026-05-07 21:24 53.69939 15.80345 36158 ft 433 kts 202°
2026-05-07 21:24 53.64321 15.76614 36160 ft 433 kts 202°
2026-05-07 21:25 53.58703 15.72907 36159 ft 433 kts 201°
2026-05-07 21:25 53.53080 15.69193 36158 ft 434 kts 202°
2026-05-07 21:26 53.47491 15.65499 36158 ft 434 kts 202°
2026-05-07 21:26 53.41860 15.61791 36151 ft 435 kts 202°
2026-05-07 21:27 53.36221 15.58101 36149 ft 435 kts 201°
2026-05-07 21:27 53.30570 15.54429 36143 ft 436 kts 201°
2026-05-07 21:28 53.24916 15.50758 36143 ft 436 kts 201°
2026-05-07 21:28 53.19257 15.47079 36143 ft 436 kts 202°
2026-05-07 21:29 53.13636 15.43431 36143 ft 436 kts 201°
2026-05-07 21:29 53.07973 15.39779 36145 ft 436 kts 201°
2026-05-07 21:30 53.02316 15.36145 36147 ft 436 kts 201°
2026-05-07 21:30 52.96655 15.32509 36139 ft 436 kts 201°
2026-05-07 21:31 52.90995 15.28875 36140 ft 436 kts 201°
2026-05-07 21:31 52.85335 15.25260 36137 ft 436 kts 201°
2026-05-07 21:32 52.79674 15.21658 36137 ft 436 kts 201°
2026-05-07 21:32 52.74009 15.18065 36132 ft 436 kts 201°
2026-05-07 21:33 52.68342 15.14478 36136 ft 436 kts 201°
2026-05-07 21:33 52.62673 15.10893 36134 ft 436 kts 201°
2026-05-07 21:34 52.56999 15.07313 36131 ft 436 kts 201°
2026-05-07 21:34 52.51361 15.03778 36131 ft 436 kts 201°
2026-05-07 21:35 52.45686 15.00223 36132 ft 436 kts 201°
2026-05-07 21:35 52.40005 14.96681 36135 ft 437 kts 201°
2026-05-07 21:36 52.34319 14.93155 36137 ft 437 kts 201°
2026-05-07 21:36 52.28641 14.89633 36126 ft 437 kts 201°
2026-05-07 21:37 52.22959 14.86116 36133 ft 437 kts 201°
2026-05-07 21:37 52.17277 14.82610 36128 ft 437 kts 201°
2026-05-07 21:38 52.11635 14.79134 36126 ft 436 kts 201°
2026-05-07 21:38 52.05976 14.75569 36118 ft 436 kts 206°
2026-05-07 21:39 52.00692 14.70762 36118 ft 435 kts 211°
2026-05-07 21:39 51.95446 14.65856 36115 ft 435 kts 210°
2026-05-07 21:40 51.90188 14.60973 36112 ft 435 kts 210°
2026-05-07 21:40 51.84929 14.56104 36110 ft 435 kts 210°
2026-05-07 21:41 51.79673 14.51239 36109 ft 435 kts 210°
2026-05-07 21:41 51.74455 14.46423 36112 ft 435 kts 210°
2026-05-07 21:42 51.69197 14.41578 36111 ft 435 kts 210°
2026-05-07 21:42 51.63943 14.36754 36106 ft 435 kts 210°
2026-05-07 21:43 51.58674 14.31945 36106 ft 435 kts 210°
2026-05-07 21:43 51.53403 14.27153 36111 ft 435 kts 210°
2026-05-07 21:44 51.48085 14.22485 36110 ft 436 kts 208°
2026-05-07 21:44 51.42642 14.18195 36111 ft 436 kts 206°
2026-05-07 21:45 51.37206 14.14015 36109 ft 436 kts 207°
2026-05-07 21:45 51.31751 14.09752 36113 ft 436 kts 207°
2026-05-07 21:46 51.26309 14.05450 36122 ft 436 kts 207°
2026-05-07 21:46 51.20863 14.01153 36121 ft 436 kts 207°
2026-05-07 21:47 51.15416 13.96878 36119 ft 436 kts 207°
2026-05-07 21:47 51.09968 13.92617 36121 ft 436 kts 207°
2026-05-07 21:48 51.04520 13.88368 36122 ft 436 kts 207°
2026-05-07 21:48 50.99077 13.84137 36120 ft 436 kts 207°
2026-05-07 21:49 50.93663 13.79941 36115 ft 435 kts 207°
2026-05-07 21:49 50.88217 13.75730 36110 ft 435 kts 207°
2026-05-07 21:50 50.82780 13.71528 36106 ft 435 kts 207°
2026-05-07 21:50 50.77334 13.67331 36099 ft 435 kts 207°
2026-05-07 21:51 50.71878 13.63190 36089 ft 435 kts 204°
2026-05-07 21:51 50.66101 13.60228 36089 ft 436 kts 199°
2026-05-07 21:52 50.60292 13.57407 36089 ft 437 kts 199°
2026-05-07 21:52 50.54481 13.54570 36084 ft 437 kts 199°
2026-05-07 21:53 50.48705 13.51765 36079 ft 437 kts 199°
2026-05-07 21:53 50.42900 13.48950 36081 ft 437 kts 199°
2026-05-07 21:54 50.37078 13.46152 36086 ft 437 kts 199°
2026-05-07 21:54 50.31261 13.43355 36086 ft 437 kts 199°
2026-05-07 21:55 50.25449 13.40548 36080 ft 437 kts 199°
2026-05-07 21:55 50.19635 13.37762 36078 ft 437 kts 199°
2026-05-07 21:56 50.13822 13.34990 36076 ft 436 kts 199°
2026-05-07 21:56 50.08012 13.32210 36065 ft 436 kts 199°
2026-05-07 21:57 50.02231 13.29356 36067 ft 436 kts 200°
2026-05-07 21:57 49.96497 13.26481 36069 ft 436 kts 200°
2026-05-07 21:58 49.90719 13.23602 36079 ft 436 kts 200°
2026-05-07 21:58 49.84929 13.20750 36078 ft 436 kts 200°
2026-05-07 21:59 49.79133 13.17905 35259 ft 439 kts 200°
2026-05-07 21:59 49.76182 13.16453 33877 ft 449 kts 200°
2026-05-07 21:59 49.73239 13.15011 33333 ft 434 kts 200°
2026-05-07 22:00 49.70388 13.13617 32925 ft 427 kts 200°
2026-05-07 22:00 49.67575 13.12239 32372 ft 422 kts 200°
2026-05-07 22:00 49.64786 13.10876 31845 ft 418 kts 200°
2026-05-07 22:00 49.62027 13.09532 31323 ft 414 kts 200°
2026-05-07 22:01 49.59295 13.08201 30815 ft 410 kts 200°
2026-05-07 22:01 49.56588 13.06880 30301 ft 406 kts 200°
2026-05-07 22:01 49.53903 13.05572 29747 ft 403 kts 200°
2026-05-07 22:01 49.51250 13.04285 29254 ft 397 kts 200°
2026-05-07 22:02 49.48669 13.03036 28775 ft 391 kts 200°
2026-05-07 22:02 49.46097 13.01790 28293 ft 384 kts 200°
2026-05-07 22:02 49.43564 13.00560 27819 ft 378 kts 200°
2026-05-07 22:02 49.41123 12.99177 27357 ft 370 kts 208°
2026-05-07 22:03 49.38816 12.97481 26817 ft 366 kts 208°
2026-05-07 22:03 49.36524 12.95802 26384 ft 364 kts 208°
2026-05-07 22:03 49.34249 12.94141 25962 ft 361 kts 208°
2026-05-07 22:03 49.31979 12.92487 25551 ft 359 kts 208°
2026-05-07 22:04 49.30483 12.91400 25276 ft 358 kts 208°
2026-05-07 22:04 49.28237 12.89771 24876 ft 356 kts 208°
2026-05-07 22:04 49.25998 12.88154 24473 ft 355 kts 208°
2026-05-07 22:04 49.23772 12.86545 24058 ft 352 kts 208°
2026-05-07 22:05 49.21573 12.84952 23647 ft 348 kts 208°
2026-05-07 22:05 49.19388 12.83364 23190 ft 345 kts 208°
2026-05-07 22:05 49.17235 12.81794 22779 ft 342 kts 208°
2026-05-07 22:05 49.15089 12.80231 22370 ft 340 kts 208°
2026-05-07 22:06 49.12958 12.78686 21953 ft 338 kts 208°
2026-05-07 22:06 49.10838 12.77156 21539 ft 336 kts 208°
2026-05-07 22:06 49.08726 12.75636 21114 ft 334 kts 208°
2026-05-07 22:06 49.06634 12.74128 20694 ft 332 kts 208°
2026-05-07 22:07 49.04551 12.72630 20284 ft 330 kts 208°
2026-05-07 22:07 49.02481 12.71144 19860 ft 327 kts 209°
2026-05-07 22:07 49.01090 12.70147 19583 ft 326 kts 209°
2026-05-07 22:07 49.00860 12.69982 19533 ft 325 kts 209°
2026-05-07 22:08 48.98821 12.68519 19127 ft 323 kts 209°
2026-05-07 22:08 48.96819 12.67082 18724 ft 321 kts 209°
2026-05-07 22:08 48.94802 12.65635 18307 ft 319 kts 209°
2026-05-07 22:08 48.92797 12.64200 17870 ft 317 kts 209°
2026-05-07 22:09 48.90805 12.62776 17471 ft 316 kts 209°
2026-05-07 22:09 48.88822 12.61362 17076 ft 314 kts 208°
2026-05-07 22:09 48.86848 12.59958 16682 ft 312 kts 208°
2026-05-07 22:09 48.84887 12.58563 16296 ft 310 kts 208°
2026-05-07 22:10 48.82936 12.57176 15902 ft 308 kts 208°
2026-05-07 22:10 48.81001 12.55799 15529 ft 306 kts 208°
2026-05-07 22:10 48.79080 12.54433 15149 ft 303 kts 208°
2026-05-07 22:10 48.77173 12.53082 14756 ft 302 kts 208°
2026-05-07 22:11 48.75247 12.51921 14390 ft 301 kts 203°
2026-05-07 22:11 48.73274 12.50856 13993 ft 300 kts 203°
2026-05-07 22:11 48.71314 12.49800 13569 ft 298 kts 202°
2026-05-07 22:11 48.69364 12.48752 13171 ft 296 kts 202°
2026-05-07 22:12 48.67430 12.47716 12779 ft 294 kts 203°
2026-05-07 22:12 48.65506 12.46686 12392 ft 292 kts 203°
2026-05-07 22:12 48.63674 12.45444 12001 ft 286 kts 216°
2026-05-07 22:12 48.62170 12.43549 11614 ft 279 kts 231°
2026-05-07 22:13 48.61097 12.41191 11252 ft 274 kts 245°
2026-05-07 22:13 48.60473 12.38497 10873 ft 271 kts 259°
2026-05-07 22:13 48.60245 12.35676 10499 ft 269 kts 264°
2026-05-07 22:13 48.60048 12.32882 10323 ft 267 kts 264°
2026-05-07 22:14 48.59843 12.30083 10221 ft 268 kts 263°
2026-05-07 22:14 48.59637 12.27282 10097 ft 268 kts 264°
2026-05-07 22:14 48.59485 12.24477 9988 ft 267 kts 266°
2026-05-07 22:14 48.59382 12.21679 9888 ft 267 kts 267°
2026-05-07 22:15 48.59294 12.18872 9779 ft 267 kts 267°
2026-05-07 22:15 48.59207 12.16070 9671 ft 267 kts 267°
2026-05-07 22:15 48.59115 12.13270 9569 ft 267 kts 267°
2026-05-07 22:15 48.59019 12.10475 9458 ft 267 kts 267°
2026-05-07 22:16 48.58919 12.07669 9352 ft 266 kts 266°
2026-05-07 22:16 48.58819 12.04914 9248 ft 266 kts 266°
2026-05-07 22:16 48.58715 12.02124 9141 ft 266 kts 266°
2026-05-07 22:16 48.58610 11.99337 9031 ft 266 kts 266°
2026-05-07 22:17 48.58503 11.96548 8935 ft 266 kts 266°
2026-05-07 22:17 48.58394 11.93764 8830 ft 265 kts 266°
2026-05-07 22:17 48.58286 11.90977 8725 ft 265 kts 266°
2026-05-07 22:17 48.58176 11.88197 8625 ft 265 kts 266°
2026-05-07 22:18 48.58066 11.85424 8517 ft 265 kts 266°
2026-05-07 22:18 48.57841 11.79871 8308 ft 264 kts 266°
2026-05-07 22:18 48.57731 11.77106 8212 ft 264 kts 266°
2026-05-07 22:19 48.57619 11.74326 8101 ft 264 kts 266°
2026-05-07 22:19 48.57506 11.71555 7994 ft 264 kts 266°
2026-05-07 22:19 48.57395 11.68786 7892 ft 264 kts 266°
2026-05-07 22:19 48.57284 11.66021 7788 ft 264 kts 266°
2026-05-07 22:20 48.56948 11.63331 7682 ft 264 kts 246°
2026-05-07 22:20 48.55835 11.61189 7582 ft 267 kts 218°
2026-05-07 22:20 48.54118 11.60120 7485 ft 273 kts 189°
2026-05-07 22:20 48.52232 11.60500 7384 ft 280 kts 158°
2026-05-07 22:21 48.50714 11.62331 7268 ft 286 kts 126°
2026-05-07 22:21 48.50036 11.65121 7184 ft 288 kts 93°
2026-05-07 22:21 48.50421 11.68044 7084 ft 286 kts 62°
2026-05-07 22:21 48.51418 11.70650 6981 ft 287 kts 57°
2026-05-07 22:22 48.52384 11.73287 6862 ft 288 kts 68°
2026-05-07 22:22 48.52818 11.76213 6766 ft 287 kts 88°
2026-05-07 22:22 48.52573 11.79179 6667 ft 285 kts 108°
2026-05-07 22:22 48.51929 11.82002 6565 ft 284 kts 110°
2026-05-07 22:23 48.51272 11.84816 6467 ft 284 kts 110°
2026-05-07 22:23 48.50617 11.87619 6369 ft 283 kts 110°
2026-05-07 22:23 48.49967 11.90419 6258 ft 282 kts 110°
2026-05-07 22:23 48.49320 11.93209 6160 ft 282 kts 110°
2026-05-07 22:24 48.48673 11.95997 6053 ft 281 kts 110°
2026-05-07 22:24 48.48026 11.98776 5954 ft 281 kts 110°
2026-05-07 22:24 48.47378 12.01548 5849 ft 280 kts 110°
2026-05-07 22:24 48.46730 12.04306 5755 ft 279 kts 110°
2026-05-07 22:25 48.46082 12.07065 5659 ft 278 kts 110°
2026-05-07 22:25 48.45206 12.09531 5558 ft 259 kts 133°
2026-05-07 22:25 48.43844 12.11050 5394 ft 240 kts 159°
2026-05-07 22:25 48.42282 12.11517 5258 ft 222 kts 184°
2026-05-07 22:26 48.40837 12.11035 5140 ft 208 kts 205°
2026-05-07 22:26 48.39636 12.09874 5061 ft 204 kts 224°
2026-05-07 22:26 48.38817 12.08157 4997 ft 202 kts 247°
2026-05-07 22:26 48.38477 12.06102 4886 ft 205 kts 262°
2026-05-07 22:27 48.38317 12.03944 4435 ft 209 kts 263°
2026-05-07 22:27 48.38163 12.01774 4106 ft 208 kts 263°
2026-05-07 22:27 48.38006 11.99630 3838 ft 203 kts 263°
2026-05-07 22:27 48.37852 11.97562 3568 ft 191 kts 263°
2026-05-07 22:28 48.37711 11.95684 3311 ft 171 kts 263°
2026-05-07 22:28 48.37584 11.93990 3081 ft 156 kts 263°
2026-05-07 22:28 48.37465 11.92404 2879 ft 150 kts 264°
2026-05-07 22:28 48.37349 11.90866 2677 ft 147 kts 264°
2026-05-07 22:29 48.37235 11.89339 2468 ft 146 kts 264°
2026-05-07 22:29 48.37119 11.87823 2265 ft 146 kts 264°
2026-05-07 22:29 48.37005 11.86313 2053 ft 144 kts 264°
2026-05-07 22:29 48.36897 11.84837 1863 ft 144 kts 264°
2026-05-07 22:30 48.36783 11.83350 1672 ft 143 kts 263°
2026-05-07 22:30 48.36666 11.81871 1476 ft 142 kts 263°
2026-05-07 22:30 48.36566 11.80533 1459 ft 102 kts 264°
2026-05-07 22:30 48.36507 11.79734 1464 ft 52 kts 263°
2026-05-07 22:31 48.36475 11.79347 1467 ft 32 kts 263°
2026-05-07 22:31 48.36449 11.79047 1459 ft 19 kts 256°
2026-05-07 22:31 48.36398 11.78889 1462 ft 16 kts 233°
2026-05-07 22:31 48.36328 11.78757 1459 ft 17 kts 232°
2026-05-07 22:32 48.36258 11.78618 1463 ft 16 kts 233°
2026-05-07 22:32 48.36179 11.78495 1461 ft 15 kts 209°
2026-05-07 22:32 48.36085 11.78485 1464 ft 13 kts 172°
2026-05-07 22:32 48.36036 11.78560 1462 ft 10 kts 97°
2026-05-07 22:33 48.36042 11.78665 1467 ft 10 kts 83°
2026-05-07 22:33 48.36049 11.78763 1459 ft 9 kts 83°
2026-05-07 22:33 48.36059 11.78896 1468 ft 18 kts 83°
2026-05-07 22:33 48.36073 11.79080 1468 ft 17 kts 83°
2026-05-07 22:34 48.36087 11.79259 1464 ft 17 kts 84°
2026-05-07 22:34 48.36097 11.79419 1468 ft 11 kts 93°
2026-05-07 22:34 48.36047 11.79488 1460 ft 11 kts 169°
2026-05-07 22:34 48.35976 11.79501 1464 ft 10 kts 173°
2026-05-07 22:35 48.35909 11.79513 1467 ft 9 kts 174°
2026-05-07 22:35 48.35841 11.79524 1463 ft 12 kts 173°
2026-05-07 22:35 48.35761 11.79538 1466 ft 11 kts 173°
2026-05-07 22:35 48.35686 11.79552 1460 ft 10 kts 173°
2026-05-07 22:36 48.35647 11.79562 1467 ft 1 kts 149°
2026-05-07 22:36 48.35645 11.79575 1457 ft 1 kts 106°
2026-05-07 22:36 48.35648 11.79644 1463 ft 9 kts 80°
2026-05-07 22:36 48.35655 11.79701 1467 ft 4 kts 78°
2026-05-07 22:37 48.35656 11.79712 1467 ft 0 kts 82°
2026-05-07 22:37 48.35656 11.79717 1465 ft 2 kts 82°
2026-05-07 22:37 48.35656 11.79718 1465 ft 0 kts 82°